This demonstration page uses our WeatherBlox Daily Observations layout. Learn more.

Left ArrowRight Arrow

Hourly Observations for June 9, 2021

Temp ( °F °C ) Dew Point ( °F °C ) Humidity (%) Winds ( mph kmh ) Pressure ( in mb ) Visibility ( mi km ) Precip ( " mm )
12:51 am 00:51 Clear 67 19.4 11 -11.7 11 11 N 3 6 29.86 1011 10 16 N/A
1:51 am 01:51 Clear 67 19.4 11 -11.7 11 11 N N/A 29.86 1011 10 16 N/A
2:51 am 02:51 Clear 65 18.3 11 -11.7 12 12 E 5 7 29.86 1011 10 16 N/A
3:51 am 03:51 Clear 63 17.2 11 -11.7 13 13 SSE 5 7 29.88 1012 10 16 N/A
4:51 am 04:51 Clear 61 16.1 11 -11.7 14 14 N N/A 29.89 1012 10 16 N/A
5:51 am 05:51 Sunny 63 17.2 11 -11.7 13 13 ESE 3 6 29.91 1013 10 16 N/A
6:51 am 06:51 Sunny 70 21.1 12 -11.1 10 10 N N/A 29.92 1013 10 16 N/A
7:51 am 07:51 Sunny 77 25 14 -10 9 9 N N/A 29.92 1013 10 16 N/A
8:51 am 08:51 Sunny 83 28.3 16 -8.9 8 8 N N/A 29.91 1013 10 16 N/A
9:51 am 09:51 Sunny 86 30 18 -7.8 8 8 N N/A 29.91 1013 10 16 N/A
10:51 am 10:51 Sunny 90 32.2 19 -7.2 7 7 VRB 3 6 29.91 1013 10 16 N/A
11:51 am 11:51 Sunny 94 34.4 21 -6.1 7 7 SSE 6 9 29.88 1012 10 16 N/A
12:51 pm 12:51 Sunny 95 35 20 -6.7 6 6 VRB 3 6 29.87 1012 10 16 N/A
1:51 pm 13:51 Mostly Sunny 98 36.7 20 -6.7 6 6 W 6 9 29.84 1011 10 16 N/A
2:51 pm 14:51 Mostly Sunny 99 37.2 18 -7.8 5 5 VRB 3 6 29.82 1010 10 16 N/A
3:51 pm 15:51 Partly Cloudy 100 37.8 18 -7.8 5 5 N N/A 29.80 1009 10 16 N/A
4:51 pm 16:51 Mostly Cloudy 102 38.9 19 -7.2 5 5 NW 9 15 29.78 1008 10 16 N/A
5:51 pm 17:51 Mostly Cloudy 100 37.8 19 -7.2 5 5 WNW 12 19 29.77 1008 10 16 N/A
6:51 pm 18:51 Mostly Cloudy 97 36.1 19 -7.2 6 6 NW 12 19 29.78 1008 10 16 N/A
7:51 pm 19:51 Mostly Clear 93 33.9 20 -6.7 7 7 NW 16 26 29.79 1009 10 16 N/A
8:51 pm 20:51 Mostly Clear 89 31.7 23 -5 9 9 NW 15 24 29.81 1010 10 16 N/A
9:51 pm 21:51 Clear 86 30 23 -5 10 10 NW 13 20 29.83 1010 10 16 N/A
10:51 pm 22:51 Clear 80 26.7 24 -4.4 13 13 WNW 10 17 29.83 1010 10 16 N/A
11:51 pm 23:51 Clear 78 25.6 22 -5.6 12 12 WNW 9 15 29.83 1010 10 16 N/A

Powered by AerisWeather